Tracking 29892 objects as of 21-Nov-2024
HD Live streaming from Space Station
objects crossing your sky now

FENGYUN 1C DEB

Track FENGYUN 1C DEB now!
10-day predictions


NORAD ID: 31293
Int'l Code: 1999-025BPB
Perigee: 706.6 km
Apogee: 887.6 km
Inclination: 98.4 °
Period: 100.7 minutes
Semi major axis: 7168 km
RCS: 0.0055 m2 (small)
Launch date: May 10, 1999
Source: People's Republic of China (PRC)
Launch site: Taiyaun Space Center, China (TSC)

Note: This is SATELLITE DEBRIS
Your satellite tracking list
Your tracking list is empty




NASA's NSSDC Master Catalog

Two Line Element Set (TLE):
1 31293U 99025BPB 24324.32165312  .00000364  00000-0  14401-3 0  9997
2 31293  98.4352 337.8126 0126205 313.8760  45.2052 14.30527906596909
Source of the keplerian elements: AFSPC